Regional Weather Roundup
Issued by NWS

Home | Current Version | Previous Version | Graphics & Text | Print | Product List | Glossary On
Versions: 1 2 3 4 5 6 7 8 9 10 11 12 13 14 15 16 17 18 19 20 21 22 23 24 25 26 27 28 29 30 31 32 33 34 35 36 37 38 39 40 41 42 43 44 45 46 47 48 49 50
705
ASUS45 KBOU 281507
RWRCO

WEATHER ROUNDUP FOR COLORADO
NATIONAL WEATHER SERVICE DENVER/BOULDER CO
900 AM MDT FRI APR 28 2017

NOTE: "FAIR" INDICATES FEW OR NO CLOUDS BELOW 12000 FEET WITH NO
SIGNIFICANT WEATHER AND/OR OBSTRUCTIONS TO VISIBILITY.

COZ001>005-013-030-031-281600-
...NORTHWEST COLORADO...

CITY           SKY/WX    TMP DP  RH WIND       PRES   REMARKS
CRAIG          CLOUDY    34  22  61 W7        29.76F WCI  28
HAYDEN         FAIR      30  21  69 CALM      29.76S
MEEKER         CLOUDY    30  27  88 E3        29.76F
MOUNT WERNER   NOT AVBL
STEAMBOAT SPGS CLOUDY    30  23  74 S3        29.75S
WALDEN           N/A     27  18  69 S9        29.73R WCI  17
$$

COZ006>008-011-281600-
...WEST CENTRAL VALLEYS...

CITY           SKY/WX    TMP DP  RH WIND       PRES   REMARKS
GRAND JUNCTION FAIR      42  22  44 CALM      29.77S
MONTROSE       FAIR      39  14  36 CALM      29.78F
EAGLE          PTSUNNY   34  23  64 SE3       29.77F
RIFLE          FAIR      38  27  64 VRB5      29.76F
DELTA          FAIR      42  19  40 CALM      29.77S
NUCLA          FAIR      37  12  35 NW5       29.80S
$$

COZ017>023-064>068-281600-
...SOUTHWEST COLORADO...

CITY           SKY/WX    TMP DP  RH WIND       PRES   REMARKS
DURANGO        FAIR      35  26  69 SW14G21   29.74S WCI  26
CORTEZ         FAIR      42  18  37 N7        29.76F
PAGOSA SPRINGS CLOUDY    34  24  67 W3        29.75S
TELLURIDE      FAIR      28  13  53 CALM      29.75F
WOLF CREEK PAS FLURRIES  16  12  86 S18G25    29.77F WCI  -1
$$

COZ009-010-012-014-032>034-037-058>063-281600-
...CENTRAL COLORADO...

CITY           SKY/WX    TMP DP  RH WIND       PRES   REMARKS
ASPEN          FLURRIES  26  23  88 S3        29.73F
BUENA VISTA    PTSUNNY   35  11  36 NW7       29.70S WCI  29
COPPER MTN     CLOUDY    14   9  79 MISG      29.69F
BERTHOUD PASS  CLOUDY     9  -4  56 NW18      29.67S WCI -10
COTTONWOOD PAS PTSUNNY   28  10  47 W5G16     29.69F WCI  23
GUNNISON       FAIR      32  21  64 CALM      29.73F
KREMMLING      FAIR      37  21  52 NE6       29.75F
LEADVILLE      CLOUDY    22  10  60 MISG      29.69F
MONARCH PASS   CLOUDY    14  10  85 W21G28    29.80R WCI  -4
SALIDA         PTSUNNY   37  16  43 NW5G17    29.78S
SUNLIGHT       PTSUNNY  N/A N/A N/A CALM      29.75F
WILKERSON PASS FAIR      19   3  49 W6        29.71F WCI  11
$$

COZ069>075-281600-
...SAN LUIS VALLEY/SANGRE DE CRISTO MOUNTAINS...

CITY           SKY/WX    TMP DP  RH WIND       PRES   REMARKS
ALAMOSA        FAIR      33  22  63 CALM      29.71F
LA VETA PASS   CLOUDY    27  18  69 S14G24    29.85R WCI  15
SAGUACHE       FAIR      36  12  38 NW6       29.72F
$$

COZ035-036-038>040-281600-
...NORTHERN COLORADO FRONT RANGE...

CITY           SKY/WX    TMP DP  RH WIND       PRES   REMARKS
DENVER INTL AP FAIR      47  15  27 NW3       29.66R
DMNS CITY PARK   N/A     47  12  24 NW5G16    29.65F
AURORA         MOSUNNY   45  15  29 W6        29.66F
FRONT RANGE AP MOSUNNY   48  18  29 NW7G18    29.67R
ERIE MUNI ARPT FAIR      45  33  62 N3        29.66S
BOULDER MUN AP FAIR      46  14  27 NE6       29.65S
CENTENNIAL     FAIR      43   8  23 W7        29.66S
BROOMFIELD     MOSUNNY   46  12  25 W10       29.66S
FORT COLLINS   FAIR      40  38  93 VRB5      29.67F
LONGMONT       FAIR      47  35  63 NE8       29.67F HAZE
$$

COZ041-046-047-076>085-087-088-281600-
...PIKES PEAK/PALMER DIVIDE AND SOUTHERN FOOTHILLS...

CITY           SKY/WX    TMP DP  RH WIND       PRES   REMARKS
COLO. SPRINGS  FAIR      47   7  19 W10       29.67F
A. F. ACADEMY  FAIR      43   9  25 NE8       29.66F
SCHRIEVER AFB  FAIR      44   8  22 W8G21     29.67F
ELLICOTT       FAIR     N/A N/A N/A NW5       29.66S
FALCON         FAIR      42  10  26 W16G23    29.68F
FORT CARSON    FAIR      46  19  34 NE8       29.66F
LIMON          FAIR      46  23  40 NW6       29.68R
MONUMENT HILL  FAIR      36  18  48 W12G17    29.69S
TRINIDAD       FAIR      48  21  34 W12       29.68S
$$

COZ042>045-048>051-090-091-281600-
...NORTHEAST COLORADO...

CITY           SKY/WX    TMP DP  RH WIND       PRES   REMARKS
GREELEY ARPT   FAIR      41  34  76 CALM      29.68S
AKRON          FAIR      44  33  65 N13       29.67S
BURLINGTON     NOT AVBL
WRAY           NOT AVBL
STERLING       FAIR      43  37  81 N9        29.68R
HOLYOKE        DRIZZLE   37  36  93 E10       29.72R
FORT MORGAN    FAIR      43  29  58 NW3       29.69R
$$

COZ086-089-092>099-281600-
...SOUTHEAST COLORADO...

CITY           SKY/WX    TMP DP  RH WIND       PRES   REMARKS
PUEBLO         FAIR      47  26  44 VRB3      29.66F
LA JUNTA       FAIR      47  35  63 W8        29.68R
LAMAR          FAIR      48  40  73 VRB3      29.66S
SPRINGFIELD      N/A     52  36  54 W3        29.67S
$$




USA.gov is the U.S. government's official web portal to all federal, state and local government web resources and services.